Location: �terpigny
(49.8910°N, 2.9249°E)
Time: 12:30:42
(UTC+00:00)

UWE-3 - Pass Details

Date: 06 July 2022
Orbit: 583 x 677 km, 97.7° (Epoch: 14 August)

Event Time Altitude Azimuth Distance (km) Brightness Sun altitude
Rises 02:17:31 0° 25° (NNE) 2,916 ? -10.7°
Reaches altitude 10° 02:20:08 10° 41° (NE) 2,021 ? -10.4°
Maximum altitude 02:23:34 22° 92° (E) 1,406 ? -10.1°
Drops below altitude 10° 02:27:03 10° 143° (SE) 2,053 ? -9.8°
Sets 02:29:43 0° 159° (SSE) 2,975 ? -9.5°
